User: anonymous   Login
Location: Feydey
(46.3431°N, 7.0106°E)
Time: 07:34:13
(UTC+00:00)
Language:

Cosmos 1727 Rocket - Orbit

View from above orbital plane
View from above orbital plane
View from above satellite
View from above satellite

Ground track
Ground track

The orbit data is extracted from the following two-line orbital elements,

1 16511U 86008B   21267.71336789  .00000080  00000-0  67041-4 0  9998
2 16511  82.9441 142.6256 0022891 242.2544 177.8189 13.75793552790593
Epoch (UTC): 24 September 2021 17:07:14
Eccentricity: 0.0022891
inclination: 82.9441°
perigee height: 962 km
apogee height: 995 km
right ascension of ascending node: 142.6256°
argument of perigee: 242.2544°
revolutions per day: 13.75793552
mean anomaly at epoch: 177.8189°
orbit number at epoch: 79059

The dashed part of the orbit path shows where the satellite is in the earth's shadow,  

DLR